Regional Weather Roundup
Issued by NWS State College, PA

Home | Current Version | Previous Version | Text Only | Print | Product List | Glossary Off
Versions: 1 2 3 4 5 6 7 8 9 10 11 12 13 14 15 16 17 18 19 20 21 22 23 24 25 26 27 28 29 30 31 32 33 34 35 36 37 38 39 40 41 42 43 44 45 46 47 48 49 50

000
ASUS41 KCTP 281110
RWRCTP

REGIONAL WEATHER ROUNDUP
NATIONAL WEATHER SERVICE STATE COLLEGE PA
700 AM EDT MON JUL 28 2014

Note: "fair" indicates few or no clouds below 12,000 feet with no
significant weather and/or obstructions to visibility.

* = STATION THAT DOES NOT REPORT PRECIPITATION /E.G. RAIN...SNOW...ETC/
    THUNDER OR FOG.

PAZ002>004-007>009-013>016-020>023-029>032-281200-
WESTERN PENNSYLVANIA

CITY           SKY/WX    TMP DP  RH WIND       PRES   REMARKS
ERIE           CLOUDY    66  61  82 NW9       29.63R
MEADVILLE      CLOUDY    61  58  90 W7        29.67S
FRANKLIN*      CLOUDY    59  55  88 W12G17    29.68S
NEW CASTLE       N/A     62  59  90 W3        29.70R
BEAVER COUNTY  CLOUDY    61  59  94 W7        29.71
BUTLER*        MOCLDY    61  57  88 W6        29.71R
PITTSBURGH INT MOCLDY    63  61  93 W9        29.70R
PITTSBURGH     CLOUDY    63  59  87 W8G16     29.69R
INDIANA*       CLOUDY    63  61  94 W9G15     29.71R
LATROBE        CLOUDY    64  63  94 W9        29.71R
WASHINGTON CO* CLOUDY    63  59  88 W6        29.73R
$$

PAZ004>006-010>012-017>019-024>028-033>037-041-042-045-046-049>053-281200-
CENTRAL PENNSYLVANIA

CITY           SKY/WX    TMP DP  RH WIND       PRES   REMARKS
BRADFORD       LGT RAIN  60  58  92 W12       29.63R FOG
DUBOIS         CLOUDY    61  59  93 W10       29.65R
CLEARFIELD     CLOUDY    62  60  93 SW7       29.64R
JOHNSTOWN      CLOUDY    59  56  89 W17G23    29.69R
ALTOONA        CLOUDY    66  59  78 W14G21    29.66R
STATE COLLEGE  CLOUDY    64  61  88 W7        29.61R
WILLIAMSPORT   CLOUDY    67  64  90 CALM      29.54S
SELINSGROVE    CLOUDY    66  64  93 CALM      29.57S
FT INDIANTOWN  CLOUDY    65  65 100 SW6       29.59R FOG
CAPITAL CITY   PTCLDY    64  63  96 CALM      29.58S FOG
HARRISBURG     PTCLDY    66  63  90 CALM      29.58R
YORK           CLEAR     67  65  93 W6        29.59R
$$

PAZ038>040-043-044-047-048-054-055-060>062-067>071-281200-
EASTERN PENNSYLVANIA

CITY           SKY/WX    TMP DP  RH WIND       PRES   REMARKS
SCRANTON       CLOUDY    66  64  93 SW3       29.57R
MOUNT POCONO   CLOUDY    63  61  93 W6        29.60R
ALLENTOWN      CLOUDY    68  64  87 W9        29.57R
QUAKERTOWN*    CLOUDY    66  66 100 SW3       29.58R
READING        CLOUDY    69  66  90 NW7       29.57R
LANCASTER      CLOUDY    67  65  93 NW8       29.59R FOG
COATESVILLE    MOSUNNY   66  66 100 W5        29.59R
POTTSTOWN      PTSUNNY   67  65  93 CALM      29.59R
BLUE BELL      SUNNY     70  68  94 CALM      29.56S
DOYLESTOWN     SUNNY     67  67 100 W3        29.56S
WILLOW GROVE   NOT AVBL
NORTH PHILA    MOSUNNY   70  66  87 CALM      29.57S
PHILADELPHIA   PTSUNNY   71  67  87 SW7       29.56S
$$



USA.gov is the U.S. government's official web portal to all federal, state and local government web resources and services.